Location: Basse Occidentale du Courleau
(48.3833°N, 4.8333°W)
Time: 04:37:13
(UTC+00:00)

Cosmos 158 Rocket - Pass Details

Date: 05 July 2020
Orbit: 698 x 794 km, 74.0° (Epoch: 11 August)

Event Time Altitude Azimuth Distance (km) Brightness Sun altitude
Exits shadow 22:52:53 27° 172° (S) 1,334 4.7 -16.1°
Maximum altitude 22:55:20 54° 107° (ESE) 851 4.0 -16.2°
Drops below altitude 10° 23:00:07 10° 31° (NNE) 2,184 6.9 -16.5°
Sets 23:02:29 0° 27° (NNE) 3,116 7.8 -16.6°
